Home   Weather   Ocala   Past weeks
Flag for USA

Past Weather in Ocala, Florida, USA — Yesterday and Last 2 Weeks

Now
85 °F

Sunny.


Feels Like: 92 °F
Forecast: 90 / 74 °F
Wind: 7 mph from West

Location: Ocala Municipal

Current Time: Jul 18, 2019 at 8:29:16 pm

Latest Report: Jul 18, 2019 at 7:51 pm


Visibility: 10 mi

Pressure: 30.06 "Hg

Humidity: 70%

Dew Point: 74 °F

Location of OcalaLocation

Past Weather in Ocala — Graph

°F

Ocala Temperature Yesterday

Maximum temperature yesterday: 93 °F (at 12:51 pm)
Minimum temperature yesterday: 73 °F (at 10:51 pm)
Average temperature yesterday: 79 °F

High & Low Weather Summary for the Past Weeks

 TemperatureHumidityPressure
High94 °F (Jul 14, 3:51 pm)100% (Jul 4, 4:51 am)30.19 "Hg (Jul 4, 4:51 am)
Low70 °F (Jul 18, 4:51 am)46% (Jul 14, 4:51 pm)29.87 "Hg (Jul 8, 6:11 pm)
Average80 °F85%30.05 "Hg
* Reported Jul 3 6:51 pm — Jul 18 6:51 pm, Ocala. Weather by CustomWeather, © 2019

Note: Actual official high and low records may vary slightly from our data, if they occured in-between our weather recording intervals... More about our weather records

Advertising

Ocala Weather History for the Previous 24 Hours

Scroll right to see more
 ConditionsComfort  
Time TempWeatherWind HumidityBarometerVisibility
6:51 pm
Thu, Jul 18
89 °FPassing clouds.5 mph59%30.05 "Hg10 mi
5:51 pm90 °FSunny.5 mph57%30.05 "Hg10 mi
4:51 pm91 °FPassing clouds.6 mph57%30.06 "Hg10 mi
3:51 pm90 °FPassing clouds.8 mph59%30.07 "Hg10 mi
2:51 pm89 °FPassing clouds.7 mph59%30.11 "Hg10 mi
1:51 pm88 °FScattered clouds.6 mph61%30.12 "Hg10 mi
12:51 pm88 °FSunny.3 mph61%30.13 "Hg10 mi
11:51 am86 °FSunny.5 mph65%30.12 "Hg10 mi
10:51 am84 °FSunny.No wind65%30.12 "Hg10 mi
9:51 am82 °FSunny.No wind72%30.13 "Hg10 mi
8:51 am77 °FSunny.3 mph88%30.14 "Hg10 mi
7:51 am73 °FSunny.No wind97%30.14 "Hg10 mi
6:51 am70 °FSunny.No wind100%30.11 "Hg10 mi
5:51 am70 °FClear.No wind100%30.10 "Hg10 mi
4:51 am70 °FClear.5 mph100%30.09 "Hg10 mi
3:51 am71 °FClear.3 mph96%30.09 "Hg10 mi
2:51 am72 °FClear.No wind97%30.09 "Hg10 mi
1:51 am72 °FClear.No wind97%30.10 "Hg10 mi
12:51 am73 °FClear.3 mph94%30.11 "Hg10 mi
11:51 pm
Wed, Jul 17
73 °FClear.5 mph97%30.13 "Hg10 mi
10:51 pm73 °FClear.No wind97%30.14 "Hg10 mi
9:51 pm74 °FClear.3 mph91%30.12 "Hg10 mi
8:51 pm75 °FClear.No wind88%30.12 "Hg10 mi
Weather by CustomWeather, © 2019

See weather overview